Regional Weather Roundup
Issued by NWS

Home | Current Version | Previous Version | Graphics & Text | Print | Product List | Glossary On
Versions: 1 2 3 4 5 6 7 8 9 10 11 12 13 14 15 16 17 18 19 20 21 22 23 24 25 26 27 28 29 30 31 32 33 34 35 36 37 38 39 40 41 42 43 44 45 46 47 48 49 50
000
ASUS45 KPSR 180700
RWRAZ

PRELIMINARY ARIZONA REGIONAL HOURLY WEATHER ROUNDUP
NATIONAL WEATHER SERVICE PHOENIX AZ
1200 AM MST THU SEP 18 2014

NOTE: FAIR INDICATES FEW OR NO CLOUDS BELOW 12,000 FEET WITH NO
SIGNIFICANT WEATHER AND/OR OBSTRUCTIONS TO VISIBILITY.

AZZ001>003-036-180800-
NORTHWEST ARIZONA

CITY           SKY/WX    TMP DP  RH WIND       PRES   REMARKS
KINGMAN        CLEAR     69  61  75 SE9       29.93S
$$

AZZ004>008-015-016-018-180800-
NORTH CENTRAL ARIZONA

CITY           SKY/WX    TMP DP  RH WIND       PRES   REMARKS
GRAND CANYON   CLEAR     49  46  90 NE5       30.15F
PRESCOTT       CLEAR     60  55  83 SW6       30.03F
FLAGSTAFF      CLEAR     51  48  89 CALM      30.16F
PAYSON         CLEAR     64  55  72 VRB3      30.05S
PAGE           CLEAR     74  51  44 SW6       29.97F
$$

AZZ009>014-017-180800-
NORTHEAST ARIZONA

CITY           SKY/WX    TMP DP  RH WIND       PRES   REMARKS
WINSLOW        NOT AVBL
SAINT JOHNS    PTCLDY    62  54  74 E8        30.07F
WINDOW ROCK    CLEAR     51  44  77 SW5       30.16
$$

AZZ023-180800-
GREATER PHOENIX AREA

CITY           SKY/WX    TMP DP  RH WIND       PRES   REMARKS
PHOENIX        PTCLDY    83  64  52 NE13      29.74S
DEER VALLEY    CLEAR     80  63  55 E6        29.77S
SCOTTSDALE     CLEAR     81  64  56 E5        29.79S
MESA-GATEWAY   PTCLDY    79  68  69 N3        29.79S
$$

AZZ027-028-180800-
SOUTHWEST MARICOPA COUNTY AND PINAL COUNTY

CITY           SKY/WX    TMP DP  RH WIND       PRES   REMARKS
CASA GRANDE    CLEAR     81  63  54 E10       29.77S
$$

AZZ503-504-507>509-180800-
SOUTHEAST ARIZONA

CITY           SKY/WX    TMP DP  RH WIND       PRES   REMARKS
TUCSON         CLOUDY    75  66  73 E5        29.84F
NOGALES        CLOUDY    67  65  93 SE5       29.89R
SIERRA VISTA   RAIN      64  63  94 N7        29.94S FOG
SAFFORD        CLOUDY    68  64  87 SE9       29.93S
$$

AZZ020-021-025-026-031-180800-
SOUTHWEST ARIZONA

CITY           SKY/WX    TMP DP  RH WIND       PRES   REMARKS
YUMA           PTCLDY    91  65  41 E7        29.70R
$$

CAZ031-033-041-043-047-048-061-180800-
SOUTHERN CALIFORNIA

CITY           SKY/WX    TMP DP  RH WIND       PRES   REMARKS
DOWNTOWN L.A.  CLEAR     73  58  59 CALM      29.78R
L.A. AIRPORT   CLEAR     70  59  68 SW6       29.79R
SAN DIEGO      PTCLDY    75  67  76 CALM      29.82S
BURBANK        CLEAR     76  57  51 SE8       29.79S
ONTARIO        PTCLDY    76  58  53 W6        29.81R
RIVERSIDE      CLEAR     77  57  50 W5        29.81R
PALM SPRINGS   CLEAR     93  57  29 VRB5      29.72S
EL CENTRO NAS  CLEAR     89  65  44 SE6       29.66S
IMPERIAL       CLEAR     91  65  41 SE7       29.66R
BLYTHE         CLEAR     87  68  52 SE7       29.70S
$$

NVZ020-UTZ003-180800-
SOUTHERN NEVADA-UTAH

CITY           SKY/WX    TMP DP  RH WIND       PRES   REMARKS
LAS VEGAS      NOT AVBL
SALT LAKE CITY PTCLDY    76  42  29 SE12      29.89S
$$

NMZ009-TXZ055-180800-
NEW MEXICO-WEST TEXAS

CITY           SKY/WX    TMP DP  RH WIND       PRES   REMARKS
ALBUQUERQUE    CLOUDY    65  57  75 CALM      30.11S
EL PASO        CLOUDY    66  64  93 N14       30.00F
$$


........................KEY........................
SKY/WX - SKY CONDITION/WEATHER
TMP    - TEMPERATURE IN FAHRENHEIT
DP     - DEW POINT IN FAHRENHEIT
RH     - RELATIVE HUMIDITY IN PERCENT
WIND   - DIRECTION AND SPEED IN MILES PER HOUR (MPH)
VRB    - VARIABLE WIND DIRECTION
PRES   - MEAN SEA LEVEL PRESSURE IN INCHES OF MERCURY
         F - FALLING PRESSURE   R - RISING PRESSURE
         S - STEADY PRESSURE
VSB    - VISIBILITY IN MILES
HX     - HEAT INDEX IN FAHRENHEIT
WCI    - WIND CHILL INDEX IN FAHRENHEIT
TC     - TEMPERATURE IN CELSIUS WHICH IS ALSO KNOWN AS
         TEMPERATURE IN CENTIGRADE
AFB    - AIR FORCE BASE
         LUKE AFB IS LUKE AIR FORCE BASE
         DAVIS-MONTHAN IS DAVIS-MONTHAN AIR FORCE BASE
NAS    - NAVAL AIR STATION
         EL CENTRO NAS IS EL CENTRO NAVAL AIR STATION
N/A    - NOT AVAILABLE


USA.gov is the U.S. government's official web portal to all federal, state and local government web resources and services.